TAY25Q EDDN-ENBR

Flight info

Callsign TAY25Q
Flight time N/A
Altitude 39000
Route SULUS1G SULUS L604 MASEK DCT ELNAT DCT TUSKA DCT BADAB
Aircraft B738/M-SDE2E3FGHIRWXY/LB1

Departure

Time 2026-05-06 15:25
Airport Nuremberg Airport (EDDN)

Arrival

Time N/A
Airport Bergen Airport, Flesland (ENBR)
Time Latitude Longitude Altitude Speed Heading
2026-05-06 15:01 49.49459 11.08308 1026 ft 0 kts 188°
2026-05-06 15:14 49.49461 11.08308 1026 ft 2 kts 188°
2026-05-06 15:14 49.49486 11.08314 1026 ft 4 kts 189°
2026-05-06 15:15 49.49510 11.08321 1027 ft 4 kts 209°
2026-05-06 15:15 49.49522 11.08344 1026 ft 5 kts 283°
2026-05-06 15:15 49.49511 11.08381 1029 ft 5 kts 298°
2026-05-06 15:15 49.49502 11.08415 1029 ft 3 kts 279°
2026-05-06 15:16 49.49502 11.08416 1029 ft 2 kts 278°
2026-05-06 15:18 49.49503 11.08406 1029 ft 2 kts 283°
2026-05-06 15:18 49.49520 11.08365 1029 ft 7 kts 317°
2026-05-06 15:18 49.49571 11.08352 1030 ft 8 kts
2026-05-06 15:18 49.49605 11.08278 1030 ft 11 kts 276°
2026-05-06 15:19 49.49613 11.08147 1029 ft 14 kts 283°
2026-05-06 15:19 49.49635 11.07985 1028 ft 18 kts 281°
2026-05-06 15:19 49.49652 11.07815 1025 ft 16 kts 283°
2026-05-06 15:19 49.49694 11.07634 1023 ft 20 kts 279°
2026-05-06 15:20 49.49717 11.07399 1022 ft 24 kts 278°
2026-05-06 15:20 49.49743 11.07135 1021 ft 24 kts 278°
2026-05-06 15:20 49.49770 11.06865 1019 ft 27 kts 278°
2026-05-06 15:20 49.49797 11.06593 1019 ft 24 kts 278°
2026-05-06 15:21 49.49823 11.06325 1017 ft 27 kts 278°
2026-05-06 15:21 49.49847 11.06077 1019 ft 16 kts 279°
2026-05-06 15:21 49.49911 11.05961 1022 ft 10 kts 338°
2026-05-06 15:21 49.49943 11.05941 1023 ft 0 kts 339°
2026-05-06 15:23 49.49971 11.05930 1024 ft 9 kts 352°
2026-05-06 15:23 49.50042 11.05975 1028 ft 13 kts 64°
2026-05-06 15:24 49.50045 11.06012 1027 ft 0 kts 91°
2026-05-06 15:24 49.50038 11.06098 1026 ft 32 kts 98°
2026-05-06 15:25 49.49967 11.06818 1023 ft 102 kts 98°
2026-05-06 15:25 49.49833 11.08204 1046 ft 156 kts 97°
2026-05-06 15:25 49.49682 11.09883 1685 ft 157 kts 97°
2026-05-06 15:25 49.49528 11.11641 2186 ft 176 kts 98°
2026-05-06 15:26 49.49363 11.13542 2872 ft 181 kts 99°
2026-05-06 15:26 49.49152 11.15597 3252 ft 210 kts 98°
2026-05-06 15:26 49.49160 11.17934 3461 ft 234 kts 79°
2026-05-06 15:26 49.49800 11.20330 3834 ft 250 kts 55°
2026-05-06 15:27 49.51036 11.22268 4335 ft 263 kts 36°
2026-05-06 15:27 49.52571 11.23959 4937 ft 276 kts 36°
2026-05-06 15:27 49.54125 11.25734 5789 ft 279 kts 37°
2026-05-06 15:27 49.55679 11.27570 6622 ft 284 kts 38°
2026-05-06 15:28 49.57282 11.29389 7374 ft 289 kts 29°
2026-05-06 15:28 49.59208 11.30305 8101 ft 294 kts
2026-05-06 15:28 49.61254 11.30142 8852 ft 296 kts 342°
2026-05-06 15:28 49.63135 11.28898 9690 ft 294 kts 328°
2026-05-06 15:29 49.64952 11.27352 10290 ft 306 kts 327°
2026-05-06 15:29 49.66878 11.25666 10477 ft 331 kts 327°
2026-05-06 15:29 49.68955 11.23858 10663 ft 354 kts 328°
2026-05-06 15:29 49.71147 11.21972 10860 ft 374 kts 328°
2026-05-06 15:30 49.73456 11.20006 11361 ft 383 kts 328°
2026-05-06 15:30 49.75810 11.18014 12048 ft 386 kts 328°
2026-05-06 15:30 49.78177 11.16015 12826 ft 389 kts 328°
2026-05-06 15:30 49.80561 11.13999 13605 ft 393 kts 328°
2026-05-06 15:31 49.82976 11.11954 14311 ft 397 kts 328°
2026-05-06 15:31 49.85182 11.09411 14968 ft 396 kts 311°
2026-05-06 15:31 49.87061 11.06277 15684 ft 398 kts 309°
2026-05-06 15:32 49.90883 10.99942 16895 ft 406 kts 311°
2026-05-06 15:32 49.92843 10.96744 17491 ft 409 kts 311°
2026-05-06 15:32 49.94793 10.93580 18100 ft 412 kts 311°
2026-05-06 15:32 49.96781 10.90355 18594 ft 415 kts 311°
2026-05-06 15:33 49.98785 10.87103 19070 ft 419 kts 311°
2026-05-06 15:33 50.00807 10.83817 19550 ft 422 kts 311°
2026-05-06 15:33 50.02843 10.80502 20013 ft 425 kts 311°
2026-05-06 15:33 50.04894 10.77159 20481 ft 429 kts 311°
2026-05-06 15:34 50.06265 10.74922 20785 ft 431 kts 311°
2026-05-06 15:34 50.08340 10.71532 21227 ft 434 kts 311°
2026-05-06 15:34 50.10434 10.68121 21674 ft 437 kts 311°
2026-05-06 15:34 50.12546 10.64683 22113 ft 440 kts 311°
2026-05-06 15:35 50.14672 10.61217 22547 ft 443 kts 311°
2026-05-06 15:35 50.16811 10.57723 22979 ft 447 kts 311°
2026-05-06 15:35 50.18935 10.54207 23639 ft 442 kts 311°
2026-05-06 15:35 50.21034 10.50699 24004 ft 444 kts 310°
2026-05-06 15:36 50.23158 10.47154 24218 ft 450 kts 311°
2026-05-06 15:36 50.25341 10.43627 24513 ft 454 kts 312°
2026-05-06 15:36 50.27534 10.40149 24861 ft 456 kts 312°
2026-05-06 15:36 50.29798 10.36560 25203 ft 458 kts 312°
2026-05-06 15:37 50.32002 10.33044 25500 ft 460 kts 311°
2026-05-06 15:37 50.34247 10.29442 25792 ft 463 kts 311°
2026-05-06 15:37 50.36442 10.25731 26078 ft 464 kts 307°
2026-05-06 15:37 50.38462 10.21796 26381 ft 465 kts 305°
2026-05-06 15:38 50.40618 10.17996 26720 ft 468 kts 311°
2026-05-06 15:38 50.42944 10.14393 27056 ft 470 kts 313°
2026-05-06 15:38 50.45266 10.10777 27405 ft 469 kts 311°
2026-05-06 15:38 50.47488 10.07047 27839 ft 468 kts 309°
2026-05-06 15:39 50.49664 10.03264 28227 ft 467 kts 309°
2026-05-06 15:39 50.51850 9.99466 28604 ft 467 kts 309°
2026-05-06 15:39 50.54037 9.95700 28996 ft 466 kts 309°
2026-05-06 15:39 50.56160 9.91929 29379 ft 465 kts 307°
2026-05-06 15:40 50.58220 9.88016 29758 ft 464 kts 306°
2026-05-06 15:40 50.60251 9.84070 30105 ft 463 kts 305°
2026-05-06 15:40 50.62286 9.80134 30460 ft 462 kts 306°
2026-05-06 15:40 50.64326 9.76236 30830 ft 460 kts 306°
2026-05-06 15:41 50.66364 9.72362 31195 ft 460 kts 306°
2026-05-06 15:41 50.68409 9.68461 31503 ft 461 kts 306°
2026-05-06 15:41 50.70561 9.64699 31779 ft 466 kts 317°
2026-05-06 15:41 50.73362 9.62045 32070 ft 475 kts 336°
2026-05-06 15:42 50.76577 9.60733 32411 ft 480 kts 352°
2026-05-06 15:42 50.79930 9.60836 32657 ft 484 kts
2026-05-06 15:42 50.83229 9.61498 32895 ft 486 kts
2026-05-06 15:42 50.86583 9.62256 33105 ft 487 kts
2026-05-06 15:43 50.89951 9.63017 33355 ft 488 kts
2026-05-06 15:43 50.93312 9.63741 33644 ft 487 kts
2026-05-06 15:43 50.96679 9.64432 33920 ft 486 kts
2026-05-06 15:43 51.00030 9.65096 34172 ft 485 kts
2026-05-06 15:44 51.03389 9.65752 34371 ft 486 kts
2026-05-06 15:44 51.06747 9.66406 34560 ft 486 kts
2026-05-06 15:44 51.10112 9.67066 34783 ft 486 kts
2026-05-06 15:44 51.13468 9.67728 35020 ft 486 kts
2026-05-06 15:45 51.16826 9.68381 35228 ft 485 kts
2026-05-06 15:45 51.20185 9.68520 35506 ft 480 kts 354°
2026-05-06 15:45 51.23434 9.67922 35798 ft 474 kts 345°
2026-05-06 15:45 51.26665 9.66611 35964 ft 473 kts 341°
2026-05-06 15:46 51.29797 9.65200 36085 ft 475 kts 341°
2026-05-06 15:46 51.33010 9.63723 36242 ft 475 kts 341°
2026-05-06 15:46 51.36150 9.62283 36463 ft 475 kts 341°
2026-05-06 15:46 51.39330 9.60840 36686 ft 474 kts 341°
2026-05-06 15:47 51.42507 9.59415 36853 ft 476 kts 341°
2026-05-06 15:47 51.45699 9.57994 36987 ft 476 kts 341°
2026-05-06 15:47 51.48898 9.56576 37160 ft 477 kts 341°
2026-05-06 15:47 51.52098 9.55162 37336 ft 477 kts 341°
2026-05-06 15:48 51.55288 9.53750 37486 ft 477 kts 341°
2026-05-06 15:48 51.58498 9.52328 37658 ft 477 kts 341°
2026-05-06 15:48 51.61696 9.50909 37778 ft 478 kts 341°
2026-05-06 15:48 51.64912 9.49478 37803 ft 480 kts 341°
2026-05-06 15:49 51.71341 9.46611 37802 ft 478 kts 341°
2026-05-06 15:49 51.77742 9.43749 37810 ft 476 kts 341°
2026-05-06 15:50 51.80932 9.42319 37923 ft 477 kts 341°
2026-05-06 15:50 51.84128 9.40884 38128 ft 475 kts 341°
2026-05-06 15:50 51.87313 9.39452 38362 ft 474 kts 341°
2026-05-06 15:50 51.90365 9.38078 38532 ft 473 kts 341°
2026-05-06 15:51 51.93604 9.36617 38671 ft 471 kts 341°
2026-05-06 15:51 51.96754 9.35195 38766 ft 469 kts 341°
2026-05-06 15:51 52.03068 9.32336 38809 ft 472 kts 341°
2026-05-06 15:52 52.09411 9.29453 38833 ft 475 kts 341°
2026-05-06 15:52 52.15807 9.26540 38835 ft 478 kts 341°
2026-05-06 15:53 52.22160 9.23641 38829 ft 475 kts 341°
2026-05-06 15:53 52.28510 9.20737 38815 ft 468 kts 341°
2026-05-06 15:54 52.34714 9.17887 38828 ft 465 kts 341°
2026-05-06 15:54 52.40929 9.15022 38826 ft 463 kts 341°
2026-05-06 15:55 52.47118 9.12161 38839 ft 462 kts 341°
2026-05-06 15:55 52.53309 9.09291 38843 ft 463 kts 341°
2026-05-06 15:56 52.59523 9.06402 38841 ft 464 kts 341°
2026-05-06 15:56 52.65748 9.03499 38867 ft 466 kts 341°
2026-05-06 15:57 52.72005 9.00573 38864 ft 468 kts 341°
2026-05-06 15:57 52.78296 8.97623 38877 ft 470 kts 341°
2026-05-06 15:58 52.84598 8.94659 38873 ft 472 kts 341°
2026-05-06 15:58 52.90887 8.91692 38883 ft 473 kts 341°
2026-05-06 15:59 52.97221 8.88695 38891 ft 473 kts 341°
2026-05-06 15:59 53.03562 8.85686 38882 ft 473 kts 340°
2026-05-06 16:00 53.09886 8.82675 38878 ft 472 kts 340°
2026-05-06 16:00 53.16184 8.79668 38879 ft 470 kts 340°
2026-05-06 16:01 53.22442 8.76671 38885 ft 468 kts 340°
2026-05-06 16:01 53.28707 8.73660 38890 ft 467 kts 340°
2026-05-06 16:02 53.34881 8.70684 38882 ft 466 kts 340°
2026-05-06 16:02 53.41105 8.67675 38881 ft 465 kts 340°
2026-05-06 16:03 53.47274 8.64684 38885 ft 464 kts 340°
2026-05-06 16:03 53.53289 8.61758 38881 ft 463 kts 340°
2026-05-06 16:04 53.59441 8.58757 38883 ft 463 kts 340°
2026-05-06 16:04 53.65562 8.55762 38884 ft 463 kts 340°
2026-05-06 16:05 53.71668 8.52765 38892 ft 463 kts 340°
2026-05-06 16:05 53.77863 8.49715 38885 ft 464 kts 340°
2026-05-06 16:06 53.84071 8.46649 38884 ft 465 kts 340°
2026-05-06 16:06 53.90242 8.43593 38886 ft 465 kts 340°
2026-05-06 16:07 53.96459 8.40504 38917 ft 466 kts 340°
2026-05-06 16:07 54.02696 8.37395 38901 ft 467 kts 340°
2026-05-06 16:08 54.08933 8.34277 38896 ft 467 kts 340°
2026-05-06 16:08 54.15173 8.31148 38899 ft 467 kts 340°
2026-05-06 16:09 54.21407 8.28012 38912 ft 467 kts 340°
2026-05-06 16:09 54.27604 8.24884 38916 ft 466 kts 340°
2026-05-06 16:10 54.33826 8.21735 38911 ft 466 kts 340°
2026-05-06 16:10 54.40039 8.18579 38914 ft 465 kts 340°
2026-05-06 16:11 54.46246 8.15416 38918 ft 465 kts 340°
2026-05-06 16:11 54.52434 8.12254 38926 ft 464 kts 340°
2026-05-06 16:12 54.58581 8.09102 38924 ft 464 kts 340°
2026-05-06 16:12 54.64771 8.05918 38924 ft 463 kts 340°
2026-05-06 16:13 54.70947 8.02731 38924 ft 463 kts 340°
2026-05-06 16:13 54.77117 7.99537 38946 ft 463 kts 339°
2026-05-06 16:14 54.83286 7.96334 38934 ft 462 kts 339°
2026-05-06 16:14 54.89453 7.93121 38939 ft 462 kts 339°
2026-05-06 16:15 54.94895 7.90277 38931 ft 462 kts 339°
2026-05-06 16:15 54.99496 7.87872 38940 ft 462 kts 340°
2026-05-06 16:16 55.05752 7.85530 38952 ft 466 kts 346°
2026-05-06 16:16 55.11882 7.83767 38952 ft 466 kts 347°
2026-05-06 16:17 55.17472 7.82146 38947 ft 466 kts 346°
2026-05-06 16:17 55.23566 7.80294 38951 ft 466 kts 346°
2026-05-06 16:18 55.29964 7.78296 38960 ft 466 kts 346°
2026-05-06 16:18 55.36356 7.76284 38979 ft 467 kts 346°
2026-05-06 16:19 55.42748 7.74268 38967 ft 467 kts 346°
2026-05-06 16:19 55.49152 7.72244 38961 ft 467 kts 346°
2026-05-06 16:20 55.54470 7.70560 38978 ft 467 kts 346°
2026-05-06 16:20 55.61915 7.68193 38965 ft 467 kts 346°
2026-05-06 16:21 55.67283 7.66481 38966 ft 467 kts 346°
2026-05-06 16:21 55.73645 7.64446 38972 ft 467 kts 346°
2026-05-06 16:22 55.80042 7.62393 38974 ft 467 kts 346°
2026-05-06 16:22 55.86418 7.60339 38975 ft 466 kts 346°
2026-05-06 16:23 55.92730 7.58305 38967 ft 456 kts 345°
2026-05-06 16:23 55.98941 7.56291 38969 ft 451 kts 345°
2026-05-06 16:24 56.05107 7.54283 38972 ft 448 kts 345°
2026-05-06 16:24 56.11238 7.52280 38995 ft 449 kts 345°
2026-05-06 16:25 56.17408 7.50257 38999 ft 454 kts 345°
2026-05-06 16:25 56.23573 7.48233 38996 ft 458 kts 345°
2026-05-06 16:26 56.26763 7.47732 38967 ft 467 kts
2026-05-06 16:26 56.29963 7.48813 39006 ft 474 kts 17°
2026-05-06 16:26 56.32943 7.51391 38987 ft 480 kts 33°
2026-05-06 16:26 56.35458 7.55355 39012 ft 483 kts 50°
2026-05-06 16:27 56.37285 7.60450 38985 ft 484 kts 68°
2026-05-06 16:27 56.38247 7.66249 38996 ft 481 kts 85°
2026-05-06 16:27 56.38287 7.72241 38983 ft 476 kts 102°
2026-05-06 16:27 56.37431 7.77944 38989 ft 468 kts 118°
2026-05-06 16:28 56.35820 7.82869 38992 ft 459 kts 134°
2026-05-06 16:28 56.33568 7.86849 38990 ft 450 kts 148°
2026-05-06 16:28 56.30915 7.89778 38964 ft 442 kts 161°
2026-05-06 16:28 56.28093 7.91404 38988 ft 433 kts 173°
2026-05-06 16:29 56.22234 7.93336 38975 ft 434 kts 174°
2026-05-06 16:29 56.16280 7.95283 38969 ft 435 kts 173°
2026-05-06 16:30 56.11254 7.97024 38964 ft 435 kts 173°
2026-05-06 16:30 56.07298 7.97972 38931 ft 427 kts 188°
2026-05-06 16:30 56.04428 7.97054 38968 ft 418 kts 201°
2026-05-06 16:31 56.01787 7.94968 38983 ft 412 kts 213°
2026-05-06 16:31 55.99479 7.91933 38965 ft 409 kts 225°
2026-05-06 16:31 55.97630 7.88102 38977 ft 407 kts 237°
2026-05-06 16:31 55.96333 7.83636 38968 ft 407 kts 250°
2026-05-06 16:32 55.95663 7.78736 38967 ft 408 kts 263°
2026-05-06 16:32 55.95659 7.73652 38971 ft 411 kts 275°
2026-05-06 16:32 55.96328 7.68690 38978 ft 416 kts 288°
2026-05-06 16:32 55.97634 7.64136 38976 ft 423 kts 301°
2026-05-06 16:33 55.99575 7.60149 38973 ft 430 kts 315°
2026-05-06 16:33 56.02037 7.56936 38986 ft 437 kts 326°
2026-05-06 16:33 56.04860 7.54806 38971 ft 446 kts 342°
2026-05-06 16:34 56.10950 7.52621 38990 ft 451 kts 345°
2026-05-06 16:34 56.17138 7.50563 38989 ft 453 kts 345°
2026-05-06 16:35 56.23345 7.48338 38986 ft 455 kts 344°
2026-05-06 16:35 56.26504 7.47584 38953 ft 463 kts 359°
2026-05-06 16:35 56.29669 7.48597 39017 ft 470 kts 17°
2026-05-06 16:35 56.32623 7.51208 38985 ft 476 kts 34°
2026-05-06 16:36 56.35099 7.55185 39014 ft 479 kts 50°
2026-05-06 16:36 56.36882 7.60255 38983 ft 480 kts 68°
2026-05-06 16:36 56.37791 7.66006 38993 ft 476 kts 86°
2026-05-06 16:36 56.37766 7.71865 38991 ft 471 kts 103°
2026-05-06 16:37 56.36843 7.77457 38986 ft 463 kts 120°
2026-05-06 16:37 56.35136 7.82291 38990 ft 453 kts 136°
2026-05-06 16:37 56.32831 7.86064 38991 ft 444 kts 150°
2026-05-06 16:37 56.30153 7.88746 38962 ft 436 kts 165°
2026-05-06 16:38 56.27253 7.90168 38995 ft 430 kts 173°
2026-05-06 16:38 56.21418 7.92056 38976 ft 432 kts 174°
2026-05-06 16:39 56.15486 7.94006 38967 ft 435 kts 173°
2026-05-06 16:39 56.09611 7.96042 38970 ft 436 kts 175°
2026-05-06 16:39 56.06620 7.96236 38959 ft 425 kts 193°
2026-05-06 16:40 56.03804 7.94872 38953 ft 419 kts 206°
2026-05-06 16:40 56.01282 7.92371 38985 ft 414 kts 218°
2026-05-06 16:40 55.99151 7.88944 38961 ft 412 kts 231°
2026-05-06 16:40 55.97536 7.84724 38973 ft 411 kts 244°
2026-05-06 16:41 55.96557 7.80024 38967 ft 412 kts 257°
2026-05-06 16:41 55.96248 7.74928 38974 ft 414 kts 270°
2026-05-06 16:41 55.96653 7.69833 38978 ft 419 kts 283°
2026-05-06 16:41 55.97767 7.65003 38974 ft 425 kts 297°
2026-05-06 16:42 55.99552 7.60754 38973 ft 432 kts 311°
2026-05-06 16:42 56.01904 7.57344 38992 ft 439 kts 324°
2026-05-06 16:42 56.04669 7.54951 38965 ft 448 kts 339°
2026-05-06 16:43 56.10806 7.52632 38983 ft 453 kts 345°
2026-05-06 16:43 56.17018 7.50597 38983 ft 454 kts 345°
2026-05-06 16:44 56.23224 7.48385 38987 ft 454 kts 344°
2026-05-06 16:44 56.26319 7.47580 38956 ft 461 kts 358°
2026-05-06 16:44 56.29505 7.48508 39011 ft 467 kts 16°
2026-05-06 16:44 56.32454 7.51037 38982 ft 473 kts 33°
2026-05-06 16:45 56.34929 7.54907 39011 ft 476 kts 49°
2026-05-06 16:45 56.36746 7.59894 38991 ft 476 kts 67°
2026-05-06 16:45 56.37704 7.65586 38993 ft 473 kts 85°
2026-05-06 16:45 56.37733 7.71469 38987 ft 467 kts 102°
2026-05-06 16:46 56.36870 7.77015 38986 ft 460 kts 119°
2026-05-06 16:46 56.35221 7.81872 38992 ft 451 kts 135°
2026-05-06 16:46 56.32957 7.85703 38993 ft 442 kts 149°
2026-05-06 16:46 56.30361 7.88418 38965 ft 435 kts 163°
2026-05-06 16:47 56.27446 7.89850 38970 ft 425 kts 180°
2026-05-06 16:47 56.24546 7.89535 38992 ft 415 kts 196°
2026-05-06 16:47 56.21845 7.87969 38971 ft 412 kts 208°
2026-05-06 16:47 56.19387 7.85395 38980 ft 409 kts 219°
2026-05-06 16:48 56.17316 7.81925 38966 ft 408 kts 232°
2026-05-06 16:48 56.15771 7.77669 38967 ft 408 kts 245°
2026-05-06 16:48 56.14905 7.72831 38970 ft 411 kts 261°
2026-05-06 16:48 56.14832 7.67696 38987 ft 416 kts 275°
2026-05-06 16:49 56.15481 7.62717 38981 ft 424 kts 288°
2026-05-06 16:49 56.16556 7.58867 38978 ft 431 kts 300°
2026-05-06 16:49 56.18576 7.54715 38984 ft 442 kts 316°
2026-05-06 16:49 56.21160 7.51635 38981 ft 453 kts 332°
2026-05-06 16:50 56.24161 7.49770 39013 ft 459 kts 339°
2026-05-06 16:50 56.30397 7.46805 39008 ft 466 kts 341°
2026-05-06 16:51 56.36708 7.43950 39011 ft 469 kts 341°
2026-05-06 16:51 56.42993 7.40994 38986 ft 471 kts 341°
2026-05-06 16:52 56.49326 7.37927 38992 ft 471 kts 340°
2026-05-06 16:52 56.55665 7.34822 38994 ft 471 kts 340°
2026-05-06 16:53 56.61983 7.31715 38999 ft 469 kts 340°
2026-05-06 16:53 56.68267 7.28618 39007 ft 468 kts 340°
2026-05-06 16:54 56.74549 7.25512 38995 ft 466 kts 340°
2026-05-06 16:54 56.80788 7.22417 38997 ft 464 kts 340°
2026-05-06 16:55 56.87016 7.19317 38998 ft 462 kts 340°
2026-05-06 16:55 56.92988 7.16334 39011 ft 460 kts 340°
2026-05-06 16:56 56.98901 7.13371 38996 ft 460 kts 340°
2026-05-06 16:56 57.04214 7.10700 38995 ft 459 kts 340°
2026-05-06 16:57 57.09460 7.08054 39010 ft 459 kts 340°
2026-05-06 16:57 57.15623 7.04935 38999 ft 459 kts 340°
2026-05-06 16:58 57.21799 7.01800 39003 ft 460 kts 340°
2026-05-06 16:58 57.27982 6.98650 39000 ft 461 kts 340°
2026-05-06 16:59 57.34169 6.95488 38994 ft 461 kts 340°
2026-05-06 16:59 57.40373 6.92306 38995 ft 462 kts 340°
2026-05-06 17:00 57.46524 6.89140 39012 ft 462 kts 339°
2026-05-06 17:00 57.52726 6.85936 38998 ft 463 kts 339°
2026-05-06 17:01 57.58935 6.82718 38993 ft 463 kts 339°
2026-05-06 17:01 57.65144 6.79489 38986 ft 463 kts 339°
2026-05-06 17:02 57.71357 6.76246 38992 ft 463 kts 339°
2026-05-06 17:02 57.77569 6.72991 39001 ft 464 kts 339°
2026-05-06 17:03 57.83791 6.69720 39003 ft 464 kts 339°
2026-05-06 17:03 57.89968 6.66461 38986 ft 464 kts 339°
2026-05-06 17:04 57.96171 6.63176 38984 ft 463 kts 339°
2026-05-06 17:04 58.02365 6.59885 38994 ft 462 kts 339°
2026-05-06 17:05 58.08553 6.56584 39004 ft 461 kts 339°
2026-05-06 17:05 58.14726 6.53280 38995 ft 461 kts 339°
2026-05-06 17:06 58.20886 6.49970 38993 ft 460 kts 339°
2026-05-06 17:06 58.27039 6.46653 38996 ft 459 kts 339°
2026-05-06 17:07 58.33180 6.43329 39026 ft 459 kts 339°
2026-05-06 17:07 58.38288 6.40555 39015 ft 459 kts 339°
2026-05-06 17:08 58.45427 6.36665 39011 ft 459 kts 339°
2026-05-06 17:08 58.50566 6.33855 39008 ft 458 kts 339°
2026-05-06 17:09 58.56694 6.30493 39024 ft 457 kts 339°
2026-05-06 17:09 58.62834 6.27108 38842 ft 462 kts 339°
2026-05-06 17:09 58.65902 6.25413 38706 ft 461 kts 339°
2026-05-06 17:10 58.68933 6.23739 38498 ft 458 kts 339°
2026-05-06 17:10 58.72019 6.22032 38205 ft 455 kts 339°
2026-05-06 17:10 58.75016 6.20370 37961 ft 453 kts 339°
2026-05-06 17:10 58.78048 6.18683 37687 ft 452 kts 339°
2026-05-06 17:11 58.81069 6.16999 37423 ft 451 kts 339°
2026-05-06 17:11 58.83968 6.15379 37174 ft 450 kts 338°
2026-05-06 17:11 58.86993 6.13687 36909 ft 450 kts 338°
2026-05-06 17:11 58.90002 6.11999 36637 ft 451 kts 338°
2026-05-06 17:12 58.93022 6.10301 36366 ft 453 kts 338°
2026-05-06 17:12 58.96053 6.08596 36051 ft 454 kts 338°
2026-05-06 17:12 58.99095 6.06882 35772 ft 455 kts 338°
2026-05-06 17:12 59.02133 6.05168 35491 ft 456 kts 338°
2026-05-06 17:13 59.05185 6.03443 35199 ft 457 kts 337°
2026-05-06 17:13 59.08256 6.01767 34903 ft 459 kts 340°